Home   Weather   Dharamshala   Past weeks

Flag for India Past Weather in Dharamshala, Himachal Pradesh, India — Yesterday and Last 2 Weeks

68 °F


Feels Like: 68 °F
Forecast: 49 / 69 °F
Wind: No wind

Location: Amritsar Airport

Current Time: Oct 25, 2016 at 10:56:33 PM

Latest Report: Oct 25, 2016 at 10:30 PM

Visibility: 2 mi

Pressure: 29.83 "Hg (25.39 "Hg at 1382m altitude)

Humidity: 94%

Dew Point: 66 °F

Location of DharamshalaLocation

Past Weather in Dharamshala — Graph


Dharamshala Temperature Yesterday

Maximum temperature yesterday: 90 °F (at 2:00 PM)
Minimum temperature yesterday: 63 °F (at 6:00 AM)
Average temperature yesterday: 77 °F

High & Low Weather Summary for the Past Weeks

High93 °F (Oct 12, 2:30 PM)100% (Oct 10, 9:30 PM)29.95 "Hg (Oct 10, 9:30 PM)
Low61 °F (Oct 22, 6:00 AM)23% (Oct 18, 3:30 PM)29.68 "Hg (Oct 12, 3:30 PM)
Average76 °F73%29.81 "Hg
* Reported Oct 10 9:30 PM — Oct 25 9:30 PM, Dharamshala, Weather by CustomWeather, © 2016

Note: Actual official high and low records may vary slightly from our data, if they occured in-between our weather recording intervals... More about our weather records


Dharamshala Weather History for the Previous 24 Hours

Scroll right to see more
Time TempWeatherWind HumidityBarometerVisibility
9:30 PM
Tue, Oct 25
68 °FFog.No wind83%29.83 "Hg2 mi
9:00 PM68 °FFog.No wind83%29.83 "Hg2 mi
8:30 PM70 °FFog.No wind78%29.83 "Hg2 mi
8:00 PM70 °FFog.No wind78%29.83 "Hg2 mi
7:30 PM72 °FHaze.No wind69%29.80 "Hg2 mi
7:00 PM73 °FHaze.No wind65%29.80 "Hg2 mi
6:30 PM75 °FHaze.No wind61%29.80 "Hg2 mi
6:00 PM79 °FClear.No wind51%29.80 "Hg2 mi
5:30 PM81 °FClear.No wind45%29.77 "Hg2 mi
4:30 PM86 °FClear.6 mph33%29.77 "Hg2 mi
4:00 PM88 °FClear.5 mph29%29.77 "Hg2 mi
3:30 PM88 °FClear.6 mph31%29.80 "Hg2 mi
3:00 PM88 °FClear.6 mph29%29.80 "Hg2 mi
2:30 PM88 °FClear.6 mph31%29.80 "Hg2 mi
2:00 PM88 °FClear.5 mph31%29.80 "Hg2 mi
1:30 PM88 °FClear.5 mph35%29.83 "Hg2 mi
1:00 PM86 °FClear.3 mph38%29.83 "Hg2 mi
12:30 PM86 °FHaze.5 mph40%29.83 "Hg2 mi
12:00 PM84 °FHaze.3 mph43%29.86 "Hg2 mi
11:30 AM84 °FHaze.2 mph45%29.86 "Hg1 mi
11:00 AM77 °FHaze.2 mph65%29.86 "Hg1 mi
10:30 AM77 °FHaze.2 mph65%29.86 "Hg1 mi
10:00 AM75 °FHaze.2 mph74%29.86 "Hg1 mi
9:30 AM72 °FFog.2 mph88%29.86 "Hg1 mi
9:00 AM70 °FFog.2 mph100%29.86 "Hg1 mi
8:30 AM66 °FFog.No wind100%29.83 "Hg1 mi
8:00 AM64 °FFog.No wind100%29.83 "Hg1 mi
7:30 AM63 °FFog.No wind100%29.83 "Hg1 mi
7:00 AM63 °FFog.No wind100%29.80 "Hg1 mi
6:30 AM63 °FFog.No wind100%29.80 "Hg1 mi
6:00 AM64 °FFog.No wind100%29.80 "Hg1 mi
5:30 AM63 °FFog.No wind100%29.80 "Hg1 mi
5:00 AM63 °FFog.No wind100%29.77 "Hg1 mi
4:30 AM64 °FFog.No wind100%29.77 "Hg1 mi
4:00 AM64 °FFog.No wind100%29.77 "Hg1 mi
3:30 AM64 °FFog.No wind100%29.77 "Hg1 mi
3:00 AM66 °FFog.No wind94%29.80 "Hg1 mi
2:30 AM66 °FFog.No wind94%29.80 "Hg1 mi
2:00 AM66 °FFog.No wind100%29.80 "Hg1 mi
1:30 AM66 °FFog.No wind94%29.80 "Hg2 mi
1:00 AM66 °FFog.No wind94%29.80 "Hg2 mi
12:30 AM68 °FFog.3 mph88%29.80 "Hg2 mi
12:00 AM68 °FFog.5 mph88%29.80 "Hg2 mi
11:30 PM
Mon, Oct 24
68 °FFog.No wind83%29.80 "Hg2 mi
11:00 PM70 °FFog.No wind83%29.80 "Hg2 mi
10:30 PM70 °FFog.No wind88%29.80 "Hg2 mi
10:00 PM70 °FFog.No wind78%29.77 "Hg2 mi
Weather by CustomWeather, © 2016

See weather overviewHow to use our weather pages